This demonstration page uses our WeatherBlox Daily Observations layout. Learn more.

Left ArrowRight Arrow

44.8408, -93.29828

Hourly Observations for August 31, 2018

Temp ( °F °C ) Dew Point ( °F °C ) Humidity (%) Winds ( mph kmh ) Pressure ( in mb ) Visibility ( mi km ) Precip ( " mm )
12:53 am 00:53 Cloudy 71 21.7 64 17.8 79 79 S 17 28 29.92 1013 10 16 0.00 0.00
1:53 am 01:53 Cloudy 71 21.7 65 18.3 81 81 S 13 20 29.93 1014 10 16 0.00 0.00
2:53 am 02:53 Mostly Cloudy with Thunderstorms 70 21.1 66 18.9 87 87 S 9 15 29.93 1014 10 16 0.02 0.51
3:21 am 03:21 Cloudy with Light Rain 69 20.6 67 19.4 93 93 SSE 13 20 29.94 1014 10 16 0.05 1.27
3:53 am 03:53 Cloudy 69 20.6 67 19.4 93 93 S 14 22 29.90 1012 10 16 0.05 1.27
4:53 am 04:53 Cloudy 70 21.1 67 19.4 90 90 S 14 22 29.88 1012 10 16 0.00 0.00
5:41 am 05:41 Mostly Cloudy 71 21.7 67 19.4 87 87 S 13 20 29.88 1012 10 16 0.00 0.00
5:53 am 05:53 Mostly Cloudy with Light Rain 71 21.7 67 19.4 87 87 SSE 15 24 29.85 1011 10 16 0.00 0.03
6:53 am 06:53 Mostly Cloudy 70 21.1 66 18.9 87 87 S 8 13 29.86 1011 10 16 0.00 0.03
7:53 am 07:53 Mostly Cloudy 70 21.1 67 19.4 90 90 S 10 17 29.86 1011 10 16 0.00 0.00
8:53 am 08:53 Mostly Cloudy 72 22.2 67 19.4 84 84 S 14 22 29.86 1011 10 16 0.00 0.00
9:53 am 09:53 Mostly Cloudy 75 23.9 66 18.9 74 74 S 13 20 29.85 1011 10 16 0.00 0.00
10:05 am 10:05 Mostly Cloudy 75 23.9 66 18.9 74 74 S 15 24 29.85 1011 10 16 0.00 0.00
10:53 am 10:53 Cloudy 76 24.4 67 19.4 74 74 S 17 28 29.86 1011 10 16 0.00 0.00
11:53 am 11:53 Cloudy 74 23.3 67 19.4 79 79 SSW 14 22 29.86 1011 10 16 0.00 0.00
12:18 pm 12:18 Cloudy 75 23.9 68 20 79 79 SSW 10 17 29.83 1010 10 16 0.00 0.00
12:53 pm 12:53 Mostly Cloudy 78 25.6 68 20 71 71 SW 12 19 29.83 1010 10 16 0.00 0.00
1:53 pm 13:53 Mostly Cloudy 81 27.2 66 18.9 61 61 SW 10 17 29.82 1010 10 16 0.00 0.00
2:53 pm 14:53 Mostly Cloudy 84 28.9 67 19.4 57 57 S 10 17 29.78 1009 10 16 0.00 0.00
3:53 pm 15:53 Mostly Cloudy 84 28.9 66 18.9 55 55 S 15 24 29.77 1008 10 16 0.00 0.00
4:53 pm 16:53 Mostly Cloudy 83 28.3 67 19.4 59 59 SSE 17 28 29.76 1008 10 16 0.00 0.00
5:53 pm 17:53 Mostly Cloudy 81 27.2 69 20.6 67 67 SSE 16 26 29.76 1008 10 16 0.00 0.00
6:53 pm 18:53 Mostly Cloudy 80 26.7 69 20.6 69 69 SSE 10 17 29.74 1007 10 16 0.00 0.00
7:53 pm 19:53 Mostly Cloudy 78 25.6 69 20.6 74 74 SSE 9 15 29.77 1008 10 16 0.00 0.00
8:53 pm 20:53 Mostly Cloudy 77 25 69 20.6 77 77 SSE 9 15 29.79 1009 10 16 0.00 0.00
9:53 pm 21:53 Mostly Cloudy 76 24.4 69 20.6 79 79 S 16 26 29.78 1008 10 16 0.00 0.00
10:53 pm 22:53 Mostly Cloudy 76 24.4 70 21.1 82 82 S 13 20 29.78 1008 10 16 0.00 0.00
11:53 pm 23:53 Mostly Cloudy 75 23.9 70 21.1 84 84 S 9 15 29.77 1008 10 16 0.00 0.00

Powered by AerisWeather